Location: Cerezo de Arriba
(41.2389°N, 3.5585°W)
Time: 04:10:27
(UTC+00:00)

Cosmos 2360 - Pass Details

Date: 19 May 2025
Orbit: 846 x 854 km, 70.8° (Epoch: 23 June)

Event Time Altitude Azimuth Distance (km) Brightness Sun altitude
Rises 20:44:36 0° 338° (NNW) 3,428 8.6 -12.4°
Reaches altitude 10° 20:47:06 10° 343° (NNW) 2,488 7.6 -12.7°
Maximum altitude 20:52:45 60° 63° (ENE) 967 4.4 -13.5°
Enters shadow 20:56:38 20° 138° (SE) 1,850 5.3 -14.1°
